, MS

(GMT )
West Delta

Weather History for KDLP - February, 2014

Change the Weather History Date:

Saturday, February 8, 2014

  Actual Average Record
Temperature  
Mean Temperature 56 °F -  
Max Temperature 62 °F - - ()
Min Temperature 50 °F - - ()
Degree Days  
Heating Degree Days 9    
Growing Degree Days 6 (Base 50)    
Moisture  
Dew Point 52 °F    
Average Humidity 84    
Maximum Humidity 94    
Minimum Humidity 72    
Precipitation  
Precipitation 0.00 in - - ()
Sea Level Pressure  
Sea Level Pressure 30.16 in    
Wind  
Wind Speed 10 mph (ENE)    
Max Wind Speed 20 mph    
Max Gust Speed 22 mph    
Visibility 9 miles    
Events      
T = Trace of Precipitation, MM = Missing Value Source: NWS Daily Summary

Daily Weather History Graph

Daily Weather History Graph

Search for Another Location

Airport or City:

Trip Planner

Search our weather history database for the weather conditions in past years. The results will help you decide how hot, cold, wet, or windy it might be!

Date:

Astronomy

Feb. 08, 2014 Rise Set
Actual Time 6:42 AM CST 5:42 PM CST
Civil Twilight 6:18 AM CST 6:07 PM CST
Nautical Twilight 5:49 AM CST 6:35 PM CST
Astronomical Twilight 5:22 AM CST 7:03 PM CST
Moon 12:43 PM CST (2/8) 1:48 AM CST (2/8)
Length of Visible Light 11h 49m
Length of Day
11h 00m
Waxing Gibbous, 69% of the Moon is Illuminated
Feb 8
Waxing Gibbous
Feb 14
Full
Feb 22
Last Quarter
Mar 1
New
Mar 8
First Quarter

Hourly Weather History & Observations

Time (CST) Temp. Dew Point Humidity Pressure Visibility Wind Dir Wind Speed Gust Speed Precip Events Conditions
12:15 AM 55.4 °F 48.2 °F 77% 30.17 in 10.0 mi North 6.9 mph - N/A   Overcast
12:35 AM 53.6 °F 48.2 °F 82% 30.17 in 10.0 mi Variable 5.8 mph - N/A   Overcast
12:55 AM 53.6 °F 48.2 °F 82% 30.17 in 6.0 mi North 6.9 mph - N/A   Haze
1:15 AM 50.0 °F 48.2 °F 94% 30.17 in 3.0 mi East 11.5 mph - N/A   Overcast
1:35 AM 50.0 °F 48.2 °F 94% 30.17 in 7.0 mi East 8.1 mph - N/A   Overcast
1:55 AM 50.0 °F 48.2 °F 94% 30.18 in 3.0 mi Variable 4.6 mph 12.7 mph N/A   Overcast
2:15 AM 50.0 °F 48.2 °F 94% 30.19 in 3.0 mi North 13.8 mph - N/A   Overcast
2:35 AM 50.0 °F 48.2 °F 94% 30.19 in 4.0 mi North 9.2 mph 15.0 mph N/A   Overcast
2:55 AM 50.0 °F 48.2 °F 94% 30.14 in 8.0 mi ENE 12.7 mph - N/A   Mostly Cloudy
3:15 AM 50.0 °F 48.2 °F 94% 30.15 in 9.0 mi Variable 6.9 mph 20.7 mph N/A   Overcast
3:35 AM 50.0 °F 48.2 °F 94% 30.17 in 9.0 mi NNE 19.6 mph - N/A   Overcast
3:55 AM 50.0 °F 48.2 °F 94% 30.15 in 10.0 mi NNE 11.5 mph 21.9 mph N/A   Overcast
4:15 AM 53.6 °F 48.2 °F 82% 30.14 in 10.0 mi NNE 11.5 mph 17.3 mph N/A   Overcast
4:35 AM 51.8 °F 48.2 °F 88% 30.14 in 10.0 mi NNE 10.4 mph - N/A   Overcast
4:55 AM 53.6 °F 48.2 °F 82% 30.15 in 10.0 mi NE 10.4 mph - N/A   Overcast
5:15 AM 53.6 °F 48.2 °F 82% 30.16 in 10.0 mi NNE 10.4 mph - N/A   Overcast
5:35 AM 53.6 °F 46.4 °F 77% 30.16 in 10.0 mi NNE 12.7 mph - N/A   Overcast
5:55 AM 53.6 °F 46.4 °F 77% 30.16 in 10.0 mi NNE 11.5 mph - N/A   Overcast
6:15 AM 51.8 °F 46.4 °F 82% 30.18 in 10.0 mi NNE 11.5 mph - N/A   Overcast
6:35 AM 53.6 °F 48.2 °F 82% 30.18 in 10.0 mi NNE 9.2 mph 15.0 mph N/A   Overcast
6:55 AM 51.8 °F 48.2 °F 88% 30.18 in 10.0 mi Variable 5.8 mph 15.0 mph N/A   Overcast
7:15 AM 51.8 °F 48.2 °F 88% 30.18 in 9.0 mi ENE 11.5 mph 18.4 mph N/A   Overcast
7:35 AM 51.8 °F 48.2 °F 88% 30.17 in 10.0 mi East 11.5 mph 19.6 mph N/A   Overcast
7:55 AM 51.8 °F 48.2 °F 88% 30.18 in 9.0 mi East 11.5 mph 19.6 mph N/A   Overcast
8:15 AM 53.6 °F 50.0 °F 88% 30.19 in 9.0 mi ENE 11.5 mph 18.4 mph N/A   Overcast
8:35 AM 53.6 °F 50.0 °F 88% 30.20 in 7.0 mi East 13.8 mph - N/A   Overcast
8:55 AM 53.6 °F 50.0 °F 88% 30.21 in 9.0 mi East 10.4 mph 18.4 mph N/A   Overcast
9:15 AM 55.4 °F 50.0 °F 82% 30.21 in 10.0 mi East 10.4 mph - N/A   Overcast
9:35 AM 55.4 °F 51.8 °F 88% 30.21 in 10.0 mi East 10.4 mph 16.1 mph N/A   Overcast
9:55 AM 55.4 °F 51.8 °F 88% 30.21 in 8.0 mi East 9.2 mph 16.1 mph N/A   Overcast
10:15 AM 55.4 °F 51.8 °F 88% 30.20 in 10.0 mi East 9.2 mph 16.1 mph N/A   Overcast
10:35 AM 55.4 °F 51.8 °F 88% 30.20 in 10.0 mi East 12.7 mph - N/A   Overcast
10:55 AM 55.4 °F 53.6 °F 94% 30.20 in 9.0 mi East 10.4 mph - N/A   Overcast
11:15 AM 57.2 °F 53.6 °F 88% 30.19 in 7.0 mi East 10.4 mph - N/A   Overcast
11:35 AM 57.2 °F 53.6 °F 88% 30.19 in 10.0 mi East 12.7 mph - N/A   Overcast
11:55 AM 57.2 °F 53.6 °F 88% 30.18 in 10.0 mi East 11.5 mph - N/A   Overcast
12:15 PM 59.0 °F 53.6 °F 82% 30.18 in 10.0 mi East 10.4 mph - N/A   Scattered Clouds
12:35 PM 59.0 °F 53.6 °F 82% 30.17 in 10.0 mi East 9.2 mph - N/A   Partly Cloudy
12:55 PM 59.0 °F 53.6 °F 82% 30.15 in 10.0 mi Variable 6.9 mph - N/A   Clear
1:15 PM 59.0 °F 53.6 °F 82% 30.15 in 8.0 mi East 9.2 mph - N/A   Clear
1:35 PM 60.8 °F 55.4 °F 82% 30.14 in 10.0 mi East 10.4 mph - N/A   Clear
1:55 PM 60.8 °F 53.6 °F 77% 30.14 in 10.0 mi East 10.4 mph - N/A   Clear
2:15 PM 60.8 °F 53.6 °F 77% 30.14 in - East 9.2 mph - N/A   Clear
2:35 PM 60.8 °F 53.6 °F 77% 30.13 in 10.0 mi East 10.4 mph - N/A   Clear
2:55 PM 60.8 °F 55.4 °F 82% 30.13 in 10.0 mi East 10.4 mph - N/A   Clear
3:15 PM 60.8 °F 53.6 °F 77% 30.12 in 10.0 mi East 9.2 mph - N/A   Clear
3:35 PM 62.6 °F 53.6 °F 72% 30.12 in 10.0 mi East 9.2 mph - N/A   Clear
3:55 PM 60.8 °F 53.6 °F 77% 30.13 in 10.0 mi East 9.2 mph - N/A   Clear
4:15 PM 62.6 °F 53.6 °F 72% 30.13 in 10.0 mi East 8.1 mph - N/A   Clear
4:35 PM 62.6 °F 55.4 °F 77% 30.13 in 10.0 mi East 9.2 mph - N/A   Clear
4:55 PM 60.8 °F 55.4 °F 82% 30.13 in 10.0 mi East 10.4 mph - N/A   Clear
5:15 PM 60.8 °F 55.4 °F 82% 30.14 in 10.0 mi East 10.4 mph - N/A   Clear
5:35 PM 59.0 °F 55.4 °F 88% 30.14 in 10.0 mi East 11.5 mph - N/A   Partly Cloudy
5:55 PM 60.8 °F 55.4 °F 82% 30.14 in 10.0 mi East 9.2 mph - N/A   Mostly Cloudy
6:15 PM 60.8 °F 55.4 °F 82% 30.14 in 10.0 mi East 9.2 mph - N/A   Mostly Cloudy
6:35 PM 60.8 °F 55.4 °F 82% 30.14 in 10.0 mi East 9.2 mph - N/A   Overcast
6:55 PM 60.8 °F 55.4 °F 82% 30.15 in 10.0 mi East 9.2 mph - N/A   Mostly Cloudy
7:15 PM 60.8 °F 55.4 °F 82% 30.15 in 10.0 mi East 9.2 mph - N/A   Mostly Cloudy
7:35 PM 60.8 °F 55.4 °F 82% 30.15 in 10.0 mi East 9.2 mph - N/A   Overcast
7:55 PM 60.8 °F 55.4 °F 82% 30.15 in 10.0 mi East 9.2 mph - N/A   Mostly Cloudy
8:15 PM 60.8 °F 55.4 °F 82% 30.15 in 10.0 mi East 9.2 mph - N/A   Mostly Cloudy
8:35 PM 59.0 °F 55.4 °F 88% 30.16 in 10.0 mi East 9.2 mph - N/A   Scattered Clouds
8:55 PM 59.0 °F 55.4 °F 88% 30.16 in 10.0 mi East 10.4 mph - N/A   Partly Cloudy
9:15 PM 60.8 °F 53.6 °F 77% 30.15 in 10.0 mi East 10.4 mph - N/A   Clear
9:35 PM 62.6 °F 53.6 °F 72% 30.15 in 10.0 mi East 10.4 mph - N/A   Clear
9:55 PM 60.8 °F 53.6 °F 77% 30.15 in 10.0 mi East 9.2 mph - N/A   Clear
10:15 PM 62.6 °F 53.6 °F 72% 30.15 in 10.0 mi East 10.4 mph - N/A   Partly Cloudy
10:35 PM 62.6 °F 53.6 °F 72% 30.15 in 10.0 mi East 9.2 mph - N/A   Partly Cloudy
10:55 PM 60.8 °F 53.6 °F 77% 30.15 in 10.0 mi East 9.2 mph - N/A   Clear
11:15 PM 60.8 °F 53.6 °F 77% 30.15 in 10.0 mi Variable 6.9 mph - N/A   Clear
11:35 PM 59.0 °F 53.6 °F 82% 30.15 in 10.0 mi Variable 4.6 mph - N/A   Clear
11:55 PM 57.2 °F 53.6 °F 88% 30.15 in 10.0 mi NNE 6.9 mph - N/A   Clear